Weather History for Reidsville, NC

Change the Weather History Date:

Thursday, February 21, 2013

  Actual Average (KGSO) Record (KGSO)
Temperature  
Mean Temperature 37 °F 44 °F  
Max Temperature 54 °F 54 °F 74 °F (2011)
Min Temperature 20 °F 34 °F 13 °F (1959)
Degree Days  
Heating Degree Days 28 21  
Month to date heating degree days 490  
Since 1 July heating degree days 2713  
Cooling Degree Days 0 0  
Month to date cooling degree days 0  
Year to date cooling degree days 0  
Moisture  
Dew Point 17 °F    
Average Humidity 49    
Maximum Humidity 83    
Minimum Humidity 21    
Precipitation  
Precipitation 0.00 in 0.11 in 1.17 in (1993)
Month to date precipitation 2.15  
Year to date precipitation 5.21  
Snow  
Snow 0.00 in 0.10 in 2.90 in (1929)
Month to date snowfall 1.9  
Since 1 July snowfall 6.2  
Snow Depth -    
Sea Level Pressure  
Sea Level Pressure 30.17 in    
Wind  
Wind Speed 0 mph (NNE)    
Max Wind Speed 5 mph    
Max Gust Speed -    
Visibility 10 miles    
Events      
T = Trace of Precipitation, MM = Missing Value Source: NWS Daily Summary

Daily Weather History Graph

Daily Weather History Graph

Search for Another Location

Airport:

Trip Planner

Search our weather history database for the weather conditions in past years. The results will help you decide how hot, cold, wet, or windy it might be!

Date:

Astronomy

Feb. 21, 2013 Rise Set
Actual Time 6:59 AM EST 6:06 PM EST
Civil Twilight 6:33 AM EST 6:32 PM EST
Nautical Twilight 6:03 AM EST 7:02 PM EST
Astronomical Twilight 5:33 AM EST 7:32 PM EST
Moon 2:24 PM EST 3:58 AM EST
Length of Visible Light 11h 58m
Length of Day
11h 06m
Waxing Gibbous, 83% of the Moon is Illuminated
Feb 21
Waxing Gibbous
Feb 25
Full
Mar 4
Last Quarter
Mar 11
New
Mar 19
First Quarter

Hourly Weather History & Observations

Time (EST) Temp. Windchill Dew Point Humidity Pressure Visibility Wind Dir Wind Speed Gust Speed Precip Events Conditions
12:15 AM 33.1 °F - 12.7 °F 43% 30.14 in 10.0 mi Calm Calm - N/A   Clear
12:35 AM 32.2 °F - 13.1 °F 45% 30.14 in 10.0 mi Calm Calm - N/A   Clear
12:55 AM 32.0 °F - 13.1 °F 46% 30.14 in 10.0 mi Calm Calm - N/A   Clear
1:15 AM 28.8 °F - 13.8 °F 54% 30.15 in 10.0 mi Calm Calm - N/A   Clear
1:35 AM 27.9 °F - 15.8 °F 61% 30.13 in 10.0 mi Calm Calm - N/A   Clear
1:55 AM 29.1 °F - 14.9 °F 55% 30.13 in 10.0 mi Calm Calm - N/A   Clear
2:15 AM 27.1 °F - 16.0 °F 63% 30.14 in 10.0 mi Calm Calm - N/A   Clear
2:35 AM 25.5 °F - 16.9 °F 70% 30.14 in 10.0 mi Calm Calm - N/A   Clear
2:55 AM 24.4 °F - 16.3 °F 71% 30.14 in 10.0 mi Calm Calm - N/A   Clear
3:15 AM 23.4 °F - 15.8 °F 73% 30.15 in 10.0 mi Calm Calm - N/A   Clear
3:35 AM 27.3 °F - 15.1 °F 60% 30.15 in 10.0 mi Calm Calm - N/A   Clear
3:55 AM 27.0 °F - 14.0 °F 58% 30.14 in 10.0 mi Calm Calm - N/A   Clear
4:15 AM 23.9 °F - 16.2 °F 72% 30.15 in 10.0 mi Calm Calm - N/A   Clear
4:35 AM 22.8 °F - 15.6 °F 74% 30.15 in 10.0 mi Calm Calm - N/A   Clear
4:55 AM 23.5 °F - 17.2 °F 77% 30.15 in 10.0 mi Calm Calm - N/A   Clear
5:15 AM 21.9 °F - 16.5 °F 80% 30.15 in 10.0 mi Calm Calm - N/A   Clear
5:35 AM 22.6 °F - 15.3 °F 73% 30.16 in 10.0 mi Calm Calm - N/A   Clear
5:55 AM 21.9 °F - 17.1 °F 82% 30.18 in 10.0 mi Calm Calm - N/A   Clear
6:15 AM 21.6 °F - 17.1 °F 83% 30.18 in 10.0 mi Calm Calm - N/A   Clear
6:35 AM 22.3 °F - 16.5 °F 79% 30.18 in 10.0 mi Calm Calm - N/A   Clear
6:55 AM 20.3 °F - 15.8 °F 83% 30.19 in 10.0 mi Calm Calm - N/A   Clear
7:15 AM 21.9 °F - 16.5 °F 80% 30.20 in 10.0 mi Calm Calm - N/A   Clear
7:35 AM 21.9 °F - 16.7 °F 80% 30.19 in 10.0 mi Calm Calm - N/A   Clear
7:55 AM 25.9 °F - 20.1 °F 79% 30.20 in 10.0 mi Calm Calm - N/A   Clear
8:15 AM 30.6 °F - 19.2 °F 63% 30.21 in 10.0 mi Calm Calm - N/A   Clear
8:35 AM 32.5 °F - 18.0 °F 55% 30.21 in 10.0 mi Calm Calm - N/A   Clear
9:15 AM 36.3 °F 33.7 °F 15.8 °F 43% 30.22 in 10.0 mi West 3.5 mph - N/A   Clear
9:35 AM 36.9 °F - 14.4 °F 40% 30.21 in 10.0 mi Calm Calm - N/A   Clear
9:55 AM 38.5 °F - 14.4 °F 37% 30.21 in 10.0 mi Calm Calm - N/A   Clear
10:15 AM 39.0 °F - 14.0 °F 36% 30.21 in 10.0 mi Calm Calm - N/A   Clear
10:35 AM 40.5 °F - 14.2 °F 34% 30.21 in 10.0 mi Calm Calm - N/A   Clear
10:55 AM 41.0 °F - 13.5 °F 33% 30.21 in 10.0 mi Calm Calm - N/A   Clear
11:15 AM 43.3 °F 41.7 °F 13.6 °F 30% 30.21 in 10.0 mi NNE 3.5 mph - N/A   Clear
11:35 AM 44.6 °F 43.1 °F 16.0 °F 32% 30.20 in 10.0 mi South 3.5 mph - N/A   Clear
11:55 AM 45.0 °F - 12.7 °F 27% 30.20 in 10.0 mi Calm Calm - N/A   Clear
12:15 PM 45.5 °F - 13.3 °F 27% 30.19 in 10.0 mi Calm Calm - N/A   Clear
12:35 PM 45.9 °F - 14.5 °F 28% 30.18 in 10.0 mi Calm Calm - N/A   Clear
1:15 PM 48.0 °F - 13.3 °F 25% 30.16 in 10.0 mi Calm Calm - N/A   Clear
1:35 PM 49.5 °F - 13.3 °F 24% 30.14 in 10.0 mi Calm Calm - N/A   Clear
1:55 PM 50.7 °F - 13.6 °F 23% 30.14 in 10.0 mi NNW 4.6 mph - N/A   Clear
2:15 PM 50.0 °F - 13.3 °F 23% 30.13 in 10.0 mi Calm Calm - N/A   Clear
2:35 PM 51.4 °F - 13.5 °F 22% 30.12 in 10.0 mi Calm Calm - N/A   Clear
2:55 PM 51.6 °F - 13.3 °F 22% 30.11 in 10.0 mi Calm Calm - N/A   Clear
3:35 PM 52.3 °F - 14.0 °F 22% 30.12 in 10.0 mi ESE 3.5 mph - N/A   Clear
3:55 PM 53.2 °F - 13.6 °F 21% 30.11 in 10.0 mi Calm Calm - N/A   Clear
4:15 PM 54.0 °F - 14.9 °F 21% 30.12 in 10.0 mi Calm Calm - N/A   Clear
4:35 PM 53.1 °F - 15.1 °F 22% 30.12 in 10.0 mi Calm Calm - N/A   Clear
4:55 PM 52.3 °F - 13.5 °F 21% 30.13 in 10.0 mi Calm Calm - N/A   Clear
5:35 PM 48.2 °F - 20.3 °F 33% 30.14 in 10.0 mi Calm Calm - N/A   Clear
5:55 PM 47.8 °F - 22.5 °F 37% 30.15 in 10.0 mi Calm Calm - N/A   Clear
6:15 PM 42.3 °F - 24.4 °F 49% 30.15 in 10.0 mi Calm Calm - N/A   Clear
6:35 PM 39.6 °F - 27.9 °F 63% 30.14 in 10.0 mi Calm Calm - N/A   Clear
6:55 PM 40.5 °F - 24.8 °F 54% 30.16 in 10.0 mi Calm Calm - N/A   Clear
7:15 PM 39.2 °F - 22.5 °F 51% 30.18 in 10.0 mi Calm Calm - N/A   Clear
7:35 PM 37.9 °F - 23.4 °F 56% 30.19 in 10.0 mi Calm Calm - N/A   Clear
8:15 PM 37.6 °F - 23.4 °F 57% 30.19 in 10.0 mi Calm Calm - N/A   Clear
8:35 PM 38.5 °F - 26.4 °F 62% 30.18 in 10.0 mi Calm Calm - N/A   Clear
8:55 PM 39.7 °F - 25.0 °F 56% 30.18 in 10.0 mi Calm Calm - N/A   Clear
9:15 PM 40.6 °F - 22.6 °F 49% 30.19 in 10.0 mi Calm Calm - N/A   Clear
9:35 PM 42.8 °F - 19.4 °F 39% 30.21 in 10.0 mi Calm Calm - N/A   Clear
9:55 PM 43.5 °F - 19.2 °F 38% 30.24 in 10.0 mi Calm Calm - N/A   Clear
10:15 PM 40.1 °F - 20.3 °F 45% 30.24 in 10.0 mi Calm Calm - N/A   Clear
10:35 PM 39.0 °F - 22.6 °F 52% 30.22 in 10.0 mi Calm Calm - N/A   Clear
11:15 PM 42.6 °F - 19.4 °F 39% 30.23 in 10.0 mi Calm Calm - N/A   Scattered Clouds
11:35 PM 43.0 °F - 18.9 °F 38% 30.26 in 10.0 mi Calm Calm - N/A   Overcast
11:55 PM 41.7 °F - 21.2 °F 44% 30.27 in 10.0 mi Calm Calm - N/A   Overcast